FW9587 Weather Reports


Display with metric or nautical units.
time (UTC)temp
F
wind
direction
speed
MPH
gust
MPH
rain 1hr
in
rain 24hr
in
rain mn
in
humidity
%
barometer
mb
20260506172520 68 152 5.0 14.0 0.01 0.02 0.02 75 1008.4
20260506172021 68 140 6.0 16.0 0.01 0.02 0.02 74 1008.3
20260506171550 68 221 6.0 16.0 0.01 0.02 0.02 74 1008.4
20260506171023 69 132 5.0 12.0 0.01 0.02 0.02 74 1008.5
20260506170615 69 176 6.0 11.0 0.01 0.02 0.02 75 1008.4
20260506170042 68 186 3.0 11.0 0.01 0.02 0.02 78 1008.5
20260506165525 67 155 4.0 11.0 0.01 0.02 0.02 79 1008.5
20260506165025 66 210 2.0 8.0 0.01 0.02 0.02 80 1008.7
20260506164547 66 155 2.0 8.0 0.02 0.02 0.02 80 1008.9
20260506164024 65 206 2.0 7.0 0.02 0.02 0.02 81 1009.1
20260506163525 65 0 2.0 7.0 0.02 0.02 0.02 80 1009.2
20260506163038 65 138 1.0 9.0 0.02 0.02 0.02 80 1009.5
20260506162525 66 176 3.0 9.0 0.01 0.01 0.01 77 1009.7
20260506162024 66 196 3.0 13.0 0.01 0.01 0.01 77 1009.8
20260506161544 66 0 2.0 13.0 0.01 0.01 0.01 78 1010.0
20260506161026 66 205 3.0 7.0 0.01 0.01 0.01 78 1009.8
20260506160524 66 151 2.0 8.0 0.01 0.01 0.01 77 1010.0
20260506160050 66 0 3.0 11.0 0.01 0.01 0.01 76 1010.1
20260506155525 66 180 3.0 14.0 0.01 0.01 0.01 76 1010.1
20260506155025 66 192 3.0 14.0 0.01 0.01 0.01 75 1010.2
20260506154550 67 166 5.0 15.0 0.00 0.00 0.00 72 1010.1
20260506154025 67 217 4.0 15.0 0.00 0.00 0.00 71 1010.1
20260506153524 68 157 4.0 13.0 0.00 0.00 0.00 69 1009.8
20260506153037 69 178 4.0 13.0 0.00 0.00 0.00 66 1010.0
20260506152525 69 161 5.0 12.0 0.00 0.00 0.00 66 1010.0
20260506152026 69 198 4.0 12.0 0.00 0.00 0.00 66 1010.0
20260506151535 69 148 2.0 12.0 0.00 0.00 0.00 67 1009.9
20260506151022 69 204 7.0 12.0 0.00 0.00 0.00 66 1010.1
20260506150525 69 196 4.0 12.0 0.00 0.00 0.00 66 1010.1
20260506150042 69 194 4.0 12.0 0.00 0.00 0.00 66 1010.0
20260506145525 69 190 4.0 12.0 0.00 0.00 0.00 66 1010.1
20260506145026 69 176 4.0 12.0 0.00 0.00 0.00 66 1010.1
20260506144544 69 197 4.0 11.0 0.00 0.00 0.00 66 1010.2
20260506144027 69 183 5.0 13.0 0.00 0.00 0.00 65 1010.1
20260506143527 69 221 4.0 13.0 0.00 0.00 0.00 66 1010.2
20260506143040 69 217 6.0 13.0 0.00 0.00 0.00 65 1010.1
20260506142528 70 180 4.0 14.0 0.00 0.00 0.00 65 1010.0
20260506142024 70 176 3.0 15.0 0.00 0.00 0.00 65 1010.1
20260506141544 70 209 4.0 15.0 0.00 0.00 0.00 65 1010.1
20260506141025 70 163 4.0 16.0 0.00 0.00 0.00 65 1010.0
20260506140525 69 180 4.0 16.0 0.00 0.00 0.00 66 1010.0
20260506140045 69 186 5.0 16.0 0.00 0.00 0.00 66 1010.0
20260506135525 69 169 3.0 10.0 0.00 0.00 0.00 66 1010.1
20260506135027 69 207 4.0 12.0 0.00 0.00 0.00 66 1010.0
20260506134544 69 184 4.0 12.0 0.00 0.00 0.00 67 1010.0
20260506134025 69 180 4.0 12.0 0.00 0.00 0.00 66 1010.0
20260506133524 69 153 4.0 13.0 0.00 0.00 0.00 67 1010.0
20260506133039 69 188 4.0 13.0 0.00 0.00 0.00 67 1010.0
20260506132525 69 143 6.0 15.0 0.00 0.00 0.00 67 1010.2
20260506132025 69 170 5.0 15.0 0.00 0.00 0.00 67 1010.3
20260506131538 69 115 5.0 11.0 0.00 0.00 0.00 67 1010.3
20260506131025 69 165 5.0 21.0 0.00 0.00 0.00 67 1010.2
20260506130526 69 107 6.0 21.0 0.00 0.00 0.00 68 1010.0
20260506130037 68 202 5.0 11.0 0.00 0.00 0.00 69 1010.1
20260506125524 68 192 5.0 13.0 0.00 0.00 0.00 68 1010.2
20260506125027 68 197 6.0 13.0 0.00 0.00 0.00 69 1010.2
20260506124543 68 202 6.0 14.0 0.00 0.00 0.00 69 1010.0
20260506124025 68 114 5.0 14.0 0.00 0.00 0.00 70 1010.0
20260506123525 67 142 4.0 12.0 0.00 0.00 0.00 71 1010.0
20260506123044 67 197 5.0 12.0 0.00 0.00 0.00 71 1009.9
20260506122526 66 172 5.0 12.0 0.00 0.00 0.00 72 1010.1
20260506122025 66 148 4.0 12.0 0.00 0.00 0.00 72 1010.3
20260506121548 66 121 3.0 10.0 0.00 0.00 0.00 73 1010.3
20260506121026 66 171 5.0 10.0 0.00 0.00 0.00 73 1010.3
20260506120525 66 192 4.0 11.0 0.00 0.00 0.00 73 1010.2
20260506120107 66 204 4.0 12.0 0.00 0.00 0.00 73 1010.2
20260506115524 65 178 5.0 12.0 0.00 0.00 0.00 73 1010.2
20260506115025 65 129 5.0 12.0 0.00 0.00 0.00 73 1010.3
20260506114545 65 183 4.0 12.0 0.00 0.00 0.00 74 1010.4
20260506114024 65 200 4.0 12.0 0.00 0.00 0.00 74 1010.5
20260506113526 65 183 4.0 13.0 0.00 0.00 0.00 74 1010.6
20260506113043 65 194 5.0 13.0 0.00 0.00 0.00 74 1010.4
20260506112526 65 130 4.0 13.0 0.00 0.00 0.00 75 1010.2
20260506112025 64 172 6.0 15.0 0.00 0.00 0.00 76 1010.4
20260506111541 64 150 4.0 15.0 0.00 0.00 0.00 76 1010.6
20260506111025 64 188 6.0 15.0 0.00 0.00 0.00 77 1010.5
20260506110525 64 138 3.0 10.0 0.00 0.00 0.00 77 1010.5
20260506110038 64 202 5.0 12.0 0.00 0.00 0.00 77 1010.4
20260506105522 64 173 5.0 12.0 0.00 0.00 0.00 78 1010.3
20260506105023 63 198 4.0 8.0 0.00 0.00 0.00 78 1010.3
20260506104541 63 180 3.0 9.0 0.00 0.00 0.00 79 1010.3
20260506104022 63 173 3.0 11.0 0.00 0.00 0.00 79 1010.3
20260506103521 63 210 4.0 11.0 0.00 0.00 0.00 79 1010.3
20260506103036 63 210 3.0 12.0 0.00 0.00 0.00 79 1010.3
20260506102522 63 153 4.0 12.0 0.00 0.00 0.00 79 1010.4
20260506102024 63 165 4.0 8.0 0.00 0.00 0.00 79 1010.4
20260506101542 63 166 3.0 8.0 0.00 0.00 0.00 79 1010.4
20260506101023 63 194 3.0 9.0 0.00 0.00 0.00 79 1010.3
20260506100521 63 190 3.0 9.0 0.00 0.00 0.00 79 1010.3
20260506100040 63 164 3.0 11.0 0.00 0.00 0.00 79 1010.3
20260506095522 63 157 4.0 11.0 0.00 0.00 0.00 79 1010.2
20260506095021 63 202 4.0 9.0 0.00 0.00 0.00 79 1010.2
20260506094544 63 163 3.0 10.0 0.00 0.00 0.00 79 1010.2
20260506094022 63 197 4.0 10.0 0.00 0.00 0.00 79 1010.2
20260506093523 63 167 3.0 8.0 0.00 0.00 0.00 79 1010.2
20260506093044 63 181 3.0 12.0 0.00 0.00 0.00 79 1010.2
20260506092521 64 138 3.0 12.0 0.00 0.00 0.00 78 1010.2
20260506092022 64 165 5.0 12.0 0.00 0.00 0.00 78 1010.2
20260506091536 64 199 4.0 9.0 0.00 0.00 0.00 78 1010.2
20260506091024 64 193 4.0 12.0 0.00 0.00 0.00 78 1010.3
20260506090524 64 211 4.0 12.0 0.00 0.00 0.00 78 1010.3
20260506090035 64 211 4.0 11.0 0.00 0.00 0.00 78 1010.2
20260506085521 64 170 4.0 11.0 0.00 0.00 0.00 78 1010.3
20260506085021 64 192 3.0 14.0 0.00 0.00 0.00 78 1010.3
20260506084541 64 188 5.0 14.0 0.00 0.00 0.00 78 1010.3
20260506084021 64 202 4.0 11.0 0.00 0.00 0.00 78 1010.5
20260506083523 64 160 6.0 12.0 0.00 0.00 0.00 78 1010.3
20260506083042 64 159 6.0 12.0 0.00 0.00 0.00 78 1010.3
20260506082522 64 150 3.0 10.0 0.00 0.00 0.00 77 1010.3
20260506082021 64 157 5.0 13.0 0.00 0.00 0.00 77 1010.4
20260506081536 64 205 5.0 13.0 0.00 0.00 0.00 77 1010.5
20260506081021 65 155 6.0 13.0 0.00 0.00 0.00 77 1010.4
20260506080524 65 128 5.0 11.0 0.00 0.00 0.00 77 1010.4
20260506073520 65 136 3.0 14.0 0.00 0.00 0.00 76 1010.5
20260506073035 65 184 5.0 14.0 0.00 0.00 0.00 76 1010.3
20260506072521 65 209 5.0 11.0 0.00 0.00 0.00 76 1010.4
20260506072022 65 123 4.0 11.0 0.00 0.00 0.00 76 1010.4
20260506071547 65 212 4.0 9.0 0.00 0.00 0.00 76 1010.5
20260506071022 65 153 3.0 12.0 0.00 0.00 0.00 76 1010.6
20260506070522 65 192 4.0 14.0 0.00 0.00 0.00 76 1010.6
20260506062021 66 188 4.0 9.0 0.00 0.00 0.00 73 1010.6
20260506061542 66 210 3.0 9.0 0.00 0.00 0.00 73 1010.7
20260506061025 66 171 4.0 12.0 0.00 0.00 0.00 73 1010.7
20260506060521 66 152 3.0 12.0 0.00 0.00 0.00 73 1010.6
20260506051024 67 207 3.0 7.0 0.00 0.00 0.00 71 1011.2
20260506050521 67 198 3.0 7.0 0.00 0.00 0.00 71 1011.2
20260506045021 67 181 1.0 11.0 0.00 0.00 0.00 70 1011.3
20260506044551 67 194 4.0 11.0 0.00 0.00 0.00 69 1011.2
20260506044023 67 169 3.0 8.0 0.00 0.00 0.00 69 1011.3
20260506043525 68 183 2.0 9.0 0.00 0.00 0.00 68 1011.3
20260506043038 68 195 4.0 9.0 0.00 0.00 0.00 68 1011.2
20260506042521 68 168 3.0 10.0 0.00 0.00 0.00 68 1011.2
20260506042021 68 194 3.0 10.0 0.00 0.00 0.00 68 1011.2
20260506041546 68 126 2.0 13.0 0.00 0.00 0.00 67 1011.2
20260506041020 68 180 3.0 13.0 0.00 0.00 0.00 67 1011.2
20260506040523 68 186 3.0 8.0 0.00 0.00 0.00 67 1011.2
20260506040044 68 198 4.0 8.0 0.00 0.00 0.00 67 1011.1
20260506035520 68 163 3.0 8.0 0.00 0.00 0.00 67 1011.2
20260506035022 68 144 4.0 8.0 0.00 0.00 0.00 66 1011.2
20260506034542 68 197 3.0 10.0 0.00 0.00 0.00 66 1011.1
20260506034023 68 155 3.0 10.0 0.00 0.00 0.00 66 1011.2
20260506033520 68 170 4.0 11.0 0.00 0.00 0.00 66 1011.2
20260506033040 68 190 4.0 11.0 0.00 0.00 0.00 65 1011.2
20260506032520 68 132 3.0 11.0 0.00 0.00 0.00 65 1011.2
20260506032020 68 107 3.0 8.0 0.00 0.00 0.00 65 1011.1
20260506031551 68 163 2.0 8.0 0.00 0.00 0.00 65 1011.1
20260506031021 68 201 3.0 7.0 0.00 0.00 0.00 64 1011.1
20260506030520 68 144 4.0 9.0 0.00 0.00 0.00 64 1011.1
20260506030040 68 205 3.0 9.0 0.00 0.00 0.00 64 1011.1
20260506025525 68 250 4.0 9.0 0.00 0.00 0.00 63 1011.2
20260506025025 68 169 2.0 7.0 0.00 0.00 0.00 63 1011.1
20260506024545 69 162 3.0 8.0 0.00 0.00 0.00 62 1011.2
20260506024025 69 213 2.0 9.0 0.00 0.00 0.00 62 1011.1
20260506023525 69 204 4.0 9.0 0.00 0.00 0.00 62 1011.1
20260506023039 69 207 4.0 13.0 0.00 0.00 0.00 61 1011.2
20260506022525 69 205 4.0 13.0 0.00 0.00 0.00 61 1011.1
20260506022025 69 158 5.0 13.0 0.00 0.00 0.00 60 1011.2
20260506021540 70 175 4.0 12.0 0.00 0.00 0.00 60 1011.1
20260506021025 70 223 4.0 11.0 0.00 0.00 0.00 60 1011.2
20260506020528 70 188 5.0 11.0 0.00 0.00 0.00 60 1011.2
20260506020037 70 200 3.0 9.0 0.00 0.00 0.00 59 1011.2
20260506015526 70 169 2.0 8.0 0.00 0.00 0.00 59 1011.2
20260506015026 70 136 4.0 9.0 0.00 0.00 0.00 59 1011.1
20260506014541 70 175 3.0 9.0 0.00 0.00 0.00 58 1011.0
20260506014024 71 190 3.0 10.0 0.00 0.00 0.00 58 1011.1
20260506013525 71 134 4.0 10.0 0.00 0.00 0.00 58 1010.8
20260506013046 71 147 3.0 12.0 0.00 0.00 0.00 58 1010.9
20260506012526 71 204 4.0 12.0 0.00 0.00 0.00 58 1010.9
20260506012027 71 210 4.0 12.0 0.00 0.00 0.00 57 1010.9
20260506011540 71 223 4.0 11.0 0.00 0.00 0.00 57 1010.9
20260506011027 72 189 5.0 13.0 0.00 0.00 0.00 57 1010.7
20260506010526 72 169 4.0 13.0 0.00 0.00 0.00 57 1010.8
20260506010039 72 135 3.0 10.0 0.00 0.00 0.00 56 1010.7
20260506005526 72 196 4.0 11.0 0.00 0.00 0.00 56 1010.6
20260506005027 72 163 5.0 11.0 0.00 0.00 0.00 55 1010.5
20260506004610 73 163 5.0 11.0 0.00 0.00 0.00 54 1010.4
20260506004024 73 172 4.0 11.0 0.00 0.00 0.00 53 1010.4
20260506003525 73 166 5.0 11.0 0.00 0.00 0.00 52 1010.2
20260506003042 73 188 4.0 10.0 0.00 0.00 0.00 52 1010.3
20260506002525 74 207 4.0 14.0 0.00 0.00 0.00 51 1010.1
20260506002025 74 173 4.0 14.0 0.00 0.00 0.00 50 1010.1
20260506001544 74 192 6.0 14.0 0.00 0.00 0.00 49 1010.1
20260506001025 75 198 5.0 12.0 0.00 0.00 0.00 47 1010.0
20260506000526 75 137 5.0 12.0 0.00 0.00 0.00 46 1010.0
20260506000045 76 184 6.0 12.0 0.00 0.00 0.00 45 1010.0
20260505235526 76 153 4.0 12.0 0.00 0.00 0.00 44 1009.8
20260505235027 76 140 6.0 12.0 0.00 0.00 0.00 43 1009.8
20260505234606 77 150 4.0 10.0 0.00 0.00 0.00 43 1009.8
20260505234025 77 180 4.0 12.0 0.00 0.00 0.00 42 1009.7
20260505233521 77 182 3.0 12.0 0.00 0.00 0.00 43 1009.5
20260505233041 77 166 4.0 12.0 0.00 0.00 0.00 42 1009.6
20260505232526 78 186 3.0 12.0 0.00 0.00 0.00 42 1009.5
20260505232026 78 209 5.0 17.0 0.00 0.00 0.00 42 1009.5
20260505231546 78 158 6.0 17.0 0.00 0.00 0.00 41 1009.5
20260505231025 78 173 6.0 15.0 0.00 0.00 0.00 41 1009.3
20260505230525 78 182 7.0 15.0 0.00 0.00 0.00 41 1009.2
20260505230047 79 148 3.0 11.0 0.00 0.00 0.00 41 1009.2
20260505225527 79 192 6.0 12.0 0.00 0.00 0.00 40 1009.3
20260505225024 79 255 3.0 18.0 0.00 0.00 0.00 40 1009.1
20260505224543 80 195 6.0 18.0 0.00 0.00 0.00 39 1009.1
20260505224025 80 189 5.0 17.0 0.00 0.00 0.00 38 1009.2
20260505223525 80 81 4.0 13.0 0.00 0.00 0.00 38 1009.0
20260505223051 80 170 5.0 18.0 0.00 0.00 0.00 38 1008.9
20260505222525 80 178 4.0 18.0 0.00 0.00 0.00 37 1009.0
20260505222023 80 186 4.0 12.0 0.00 0.00 0.00 37 1009.0
20260505221539 81 205 5.0 20.0 0.00 0.00 0.00 36 1009.0
20260505221021 81 215 5.0 20.0 0.00 0.00 0.00 35 1008.8
20260505220525 81 200 6.0 15.0 0.00 0.00 0.00 33 1008.8
20260505220050 81 185 5.0 15.0 0.00 0.00 0.00 33 1008.7
20260505215526 81 213 5.0 15.0 0.00 0.00 0.00 32 1008.8
20260505215025 81 244 5.0 19.0 0.00 0.00 0.00 33 1008.9
20260505214547 81 173 6.0 19.0 0.00 0.00 0.00 32 1008.8
20260505214026 81 226 6.0 19.0 0.00 0.00 0.00 32 1008.7
20260505213525 81 187 4.0 16.0 0.00 0.00 0.00 31 1008.8
20260505213040 82 209 7.0 16.0 0.00 0.00 0.00 31 1008.8
20260505212525 82 233 5.0 18.0 0.00 0.00 0.00 31 1008.7
20260505212023 82 245 7.0 18.0 0.00 0.00 0.00 30 1008.7
20260505211535 82 188 8.0 18.0 0.00 0.00 0.00 33 1008.6
20260505211023 82 156 9.0 18.0 0.00 0.00 0.00 36 1008.6
20260505210521 82 151 7.0 15.0 0.00 0.00 0.00 36 1008.5
20260505210043 82 207 5.0 14.0 0.00 0.00 0.00 36 1008.6
20260505205526 82 163 8.0 20.0 0.00 0.00 0.00 37 1008.3
20260505205026 82 229 6.0 21.0 0.00 0.00 0.00 37 1008.5
20260505204542 82 161 7.0 21.0 0.00 0.00 0.00 37 1008.3
20260505204025 82 190 10.0 19.0 0.00 0.00 0.00 36 1008.4
20260505203522 83 236 5.0 15.0 0.00 0.00 0.00 38 1008.4
20260505203039 82 235 5.0 19.0 0.00 0.00 0.00 38 1008.5
20260505202525 82 122 7.0 20.0 0.00 0.00 0.00 38 1008.5
20260505202024 82 184 10.0 20.0 0.00 0.00 0.00 37 1008.5
20260505201535 82 213 8.0 17.0 0.00 0.00 0.00 36 1008.5
20260505201022 83 139 8.0 18.0 0.00 0.00 0.00 37 1008.5
20260505200525 83 146 5.0 18.0 0.00 0.00 0.00 37 1008.6
20260505200037 83 212 7.0 17.0 0.00 0.00 0.00 35 1008.6
20260505195524 83 230 6.0 17.0 0.00 0.00 0.00 37 1008.6
20260505195024 83 205 6.0 15.0 0.00 0.00 0.00 37 1008.7
20260505194542 82 160 5.0 15.0 0.00 0.00 0.00 38 1008.8
20260505194026 83 188 8.0 16.0 0.00 0.00 0.00 37 1008.9
20260505193521 83 187 5.0 17.0 0.00 0.00 0.00 36 1008.9
20260505193042 83 146 9.0 17.0 0.00 0.00 0.00 36 1008.9
20260505192525 83 149 4.0 20.0 0.00 0.00 0.00 37 1009.0
20260505192025 83 129 6.0 21.0 0.00 0.00 0.00 37 1008.9
20260505191540 83 171 6.0 23.0 0.00 0.00 0.00 36 1009.0
20260505191025 83 184 8.0 23.0 0.00 0.00 0.00 37 1009.2
20260505190528 83 173 7.0 16.0 0.00 0.00 0.00 37 1009.1
20260505190046 83 158 7.0 14.0 0.00 0.00 0.00 36 1009.1
20260505185522 83 181 6.0 14.0 0.00 0.00 0.00 39 1009.2
20260505185022 83 213 4.0 15.0 0.00 0.00 0.00 38 1009.4
20260505184535 83 205 8.0 17.0 0.00 0.00 0.00 37 1009.5
20260505184021 83 234 4.0 17.0 0.00 0.00 0.00 40 1009.4
20260505183522 83 205 8.0 17.0 0.00 0.00 0.00 38 1009.6
20260505183048 82 252 4.0 14.0 0.00 0.00 0.00 38 1009.6
20260505182522 82 154 5.0 16.0 0.00 0.00 0.00 40 1009.8
20260505182022 83 167 5.0 16.0 0.00 0.00 0.00 40 1009.8
20260505181544 83 188 7.0 15.0 0.00 0.00 0.00 37 1009.8
20260505181023 83 236 4.0 11.0 0.00 0.00 0.00 39 1009.9
20260505180525 82 360 3.0 11.0 0.00 0.00 0.00 42 1009.9
20260505180041 82 220 4.0 11.0 0.00 0.00 0.00 40 1010.0
20260505175522 82 198 3.0 11.0 0.00 0.00 0.00 43 1010.2
20260505175025 82 163 6.0 14.0 0.00 0.00 0.00 41 1010.2
20260505174536 81 213 6.0 16.0 0.00 0.00 0.00 41 1010.2
20260505174025 82 189 5.0 16.0 0.00 0.00 0.00 41 1010.3
20260505173523 82 0 4.0 11.0 0.00 0.00 0.00 41 1010.3
20260505173046 81 180 4.0 11.0 0.00 0.00 0.00 41 1010.4